When you browse on this site, cookies collect data to enhance your experience and personalize the content and advertising you see.
Visit our Privacy Policy to learn more. By continuing to use the site, you agree to this use of cookies and data.
  • In United Kingdom
  • List of Countries
  • For 7 days
  • Water Temperature
  • Satellite Maps
  • Weather Map
  • Weather Widgets
  • user-avatar
    Login

    Hourly Weather Bristol

    Today, 25 March, Monday

    Time Temperature Precipitation Wind Pressure Humidity
    00:00 +5°C° 0 mm 4 mps 772 mmHg 86%
    01:00 +5°C° 0 mm 4 mps 772 mmHg 87%
    02:00 +4°C° 0 mm 4 mps 772 mmHg 89%
    03:00 +4°C° 0 mm 4 mps 772 mmHg 90%
    04:00 +4°C° 0 mm 4 mps 772 mmHg 89%
    05:00 +4°C° 0 mm 4 mps 772 mmHg 88%
    06:00 +3°C° 0 mm 4 mps 772 mmHg 88%
    07:00 +5°C° 0 mm 4 mps 772 mmHg 81%
    08:00 +6°C° 0 mm 5 mps 773 mmHg 75%
    09:00 +7°C° 0 mm 6 mps 773 mmHg 69%
    10:00 +8°C° 0 mm 5 mps 774 mmHg 65%
    11:00 +9°C° 0 mm 5 mps 774 mmHg 62%
    12:00 +11°C° 0 mm 4 mps 774 mmHg 59%
    13:00 +11°C° 0 mm 4 mps 774 mmHg 58%
    14:00 +11°C° 0 mm 3 mps 774 mmHg 57%
    15:00 +12°C° 0 mm 3 mps 774 mmHg 57%
    16:00 +12°C° 0 mm 2 mps 774 mmHg 61%
    17:00 +10°C° 0 mm 2 mps 774 mmHg 66%
    18:00 +10°C° 0 mm 1 mps 774 mmHg 71%
    19:00 +9°C° 0 mm 1 mps 774 mmHg 74%
    20:00 +7°C° 0 mm 1 mps 775 mmHg 77%
    21:00 +6°C° 0 mm 1 mps 775 mmHg 80%
    22:00 +6°C° 0 mm 1 mps 775 mmHg 82%
    23:00 +5°C° 0 mm 1 mps 775 mmHg 84%

    Tomorrow, 26 March, Tuesday

    Time Temperature Precipitation Wind Pressure Humidity
    00:00 +4°C° 0 mm 2 mps 775 mmHg 86%
    01:00 +4°C° 0 mm 1 mps 775 mmHg 86%
    02:00 +4°C° 0 mm 1 mps 775 mmHg 86%
    03:00 +4°C° 0 mm 1 mps 775 mmHg 87%
    04:00 +4°C° 0 mm 1 mps 775 mmHg 87%
    05:00 +3°C° 0 mm 1 mps 775 mmHg 87%
    06:00 +3°C° 0 mm 1 mps 775 mmHg 87%
    07:00 +5°C° 0 mm 1 mps 775 mmHg 82%
    08:00 +7°C° 0 mm 1 mps 775 mmHg 76%
    09:00 +9°C° 0 mm 1 mps 775 mmHg 71%
    10:00 +10°C° 0 mm 1 mps 775 mmHg 67%
    11:00 +11°C° 0 mm 1 mps 775 mmHg 62%
    12:00 +13°C° 0 mm 1 mps 775 mmHg 58%
    13:00 +13°C° 0 mm 2 mps 775 mmHg 58%
    14:00 +14°C° 0 mm 2 mps 774 mmHg 58%
    15:00 +14°C° 0 mm 2 mps 774 mmHg 58%
    16:00 +12°C° 0 mm 3 mps 774 mmHg 65%
    17:00 +11°C° 0 mm 3 mps 774 mmHg 72%
    18:00 +10°C° 0 mm 3 mps 774 mmHg 79%
    19:00 +9°C° 0 mm 3 mps 774 mmHg 82%
    20:00 +8°C° 0 mm 3 mps 774 mmHg 85%
    21:00 +7°C° 0 mm 2 mps 775 mmHg 88%
    22:00 +6°C° 0 mm 2 mps 775 mmHg 89%
    23:00 +5°C° 0 mm 2 mps 775 mmHg 89%

    Day after tomorrow, 27 March, Wednesday

    Time Temperature Precipitation Wind Pressure Humidity
    00:00 +5°C° 0 mm 2 mps 775 mmHg 89%
    01:00 +5°C° 0 mm 1 mps 775 mmHg 89%
    02:00 +5°C° 0 mm 1 mps 775 mmHg 90%
    03:00 +5°C° 0 mm 1 mps 775 mmHg 90%
    04:00 +5°C° 0 mm 1 mps 775 mmHg 90%
    05:00 +4°C° 0 mm 1 mps 775 mmHg 90%
    06:00 +3°C° 0 mm 0 mps 775 mmHg 90%
    07:00 +6°C° 0 mm 1 mps 775 mmHg 86%
    08:00 +8°C° 0 mm 1 mps 775 mmHg 81%
    09:00 +10°C° 0 mm 1 mps 775 mmHg 77%
    10:00 +11°C° 0 mm 1 mps 775 mmHg 72%
    11:00 +12°C° 0 mm 2 mps 776 mmHg 67%
    12:00 +14°C° 0 mm 2 mps 776 mmHg 63%
    13:00 +14°C° 0 mm 2 mps 776 mmHg 62%
    14:00 +15°C° 0 mm 2 mps 775 mmHg 60%
    15:00 +15°C° 0 mm 2 mps 775 mmHg 59%
    16:00 +14°C° 0 mm 2 mps 775 mmHg 64%
    17:00 +13°C° 0 mm 1 mps 775 mmHg 69%
    18:00 +12°C° 0 mm 1 mps 775 mmHg 75%
    19:00 +11°C° 0 mm 1 mps 775 mmHg 78%
    20:00 +10°C° 0 mm 1 mps 776 mmHg 81%
    21:00 +9°C° 0 mm 1 mps 776 mmHg 84%
    22:00 +8°C° 0 mm 1 mps 776 mmHg 86%
    23:00 +6°C° 0 mm 2 mps 776 mmHg 87%

    28 March, Thursday

    Time Temperature Precipitation Wind Pressure Humidity
    00:00 +6°C° 0 mm 2 mps 776 mmHg 89%
    01:00 +5°C° 0 mm 2 mps 776 mmHg 90%
    02:00 +5°C° 0 mm 2 mps 776 mmHg 90%
    03:00 +4°C° 0 mm 2 mps 776 mmHg 90%
    04:00 +4°C° 0 mm 2 mps 776 mmHg 91%
    05:00 +4°C° 0 mm 2 mps 776 mmHg 91%
    06:00 +4°C° 0 mm 1 mps 776 mmHg 92%
    07:00 +6°C° 0 mm 1 mps 776 mmHg 87%
    08:00 +8°C° 0 mm 1 mps 776 mmHg 82%
    09:00 +10°C° 0 mm 1 mps 776 mmHg 77%
    10:00 +11°C° 0 mm 1 mps 776 mmHg 72%
    11:00 +13°C° 0 mm 1 mps 776 mmHg 67%
    12:00 +14°C° 0 mm 1 mps 776 mmHg 62%
    13:00 +15°C° 0 mm 1 mps 775 mmHg 60%
    14:00 +15°C° 0 mm 1 mps 775 mmHg 59%
    15:00 +16°C° 0 mm 1 mps 774 mmHg 57%
    16:00 +15°C° 0 mm 1 mps 774 mmHg 62%
    17:00 +14°C° 0 mm 1 mps 774 mmHg 67%
    18:00 +13°C° 0 mm 1 mps 774 mmHg 71%
    19:00 +10°C° 0 mm 0 mps 774 mmHg 74%
    20:00 +9°C° 0 mm 0 mps 774 mmHg 77%
    21:00 +8°C° 0 mm 0 mps 774 mmHg 80%
    22:00 +7°C° 0 mm 0 mps 774 mmHg 83%
    23:00 +8°C° 0 mm 1 mps 774 mmHg 85%

    29 March, Friday

    Time Temperature Precipitation Wind Pressure Humidity
    00:00 +8°C° 0 mm 1 mps 774 mmHg 87%
    01:00 +7°C° 0 mm 1 mps 773 mmHg 88%
    02:00 +7°C° 0 mm 1 mps 773 mmHg 89%
    03:00 +7°C° 0 mm 1 mps 773 mmHg 91%
    04:00 +7°C° 0 mm 1 mps 773 mmHg 91%
    05:00 +6°C° 0 mm 1 mps 773 mmHg 92%
    06:00 +6°C° 0 mm 1 mps 773 mmHg 92%
    07:00 +8°C° 0 mm 1 mps 773 mmHg 88%
    08:00 +10°C° 0 mm 1 mps 773 mmHg 84%
    09:00 +12°C° 0 mm 2 mps 773 mmHg 80%
    10:00 +13°C° 0 mm 2 mps 772 mmHg 75%
    11:00 +14°C° 0 mm 2 mps 772 mmHg 71%
    12:00 +15°C° 0 mm 2 mps 772 mmHg 66%
    13:00 +15°C° 0 mm 2 mps 771 mmHg 65%
    14:00 +16°C° 0 mm 2 mps 771 mmHg 64%
    15:00 +16°C° 0 mm 2 mps 770 mmHg 63%
    16:00 +15°C° 0 mm 2 mps 770 mmHg 68%
    17:00 +14°C° 0 mm 2 mps 770 mmHg 74%
    18:00 +13°C° 0 mm 2 mps 770 mmHg 79%
    19:00 +12°C° 0 mm 2 mps 770 mmHg 83%
    20:00 +9°C° 0 mm 2 mps 770 mmHg 87%
    21:00 +8°C° 0 mm 2 mps 770 mmHg 91%
    22:00 +8°C° 0 mm 2 mps 770 mmHg 92%
    23:00 +7°C° 0 mm 2 mps 770 mmHg 92%

    30 March, Saturday

    Time Temperature Precipitation Wind Pressure Humidity
    00:00 +7°C° 0 mm 2 mps 770 mmHg 92%
    01:00 +7°C° 0 mm 1 mps 769 mmHg 92%
    02:00 +7°C° 0 mm 1 mps 769 mmHg 92%
    03:00 +7°C° 0 mm 1 mps 769 mmHg 92%
    04:00 +7°C° 0 mm 1 mps 769 mmHg 93%
    05:00 +7°C° 0 mm 1 mps 769 mmHg 94%
    06:00 +7°C° 0 mm 1 mps 769 mmHg 94%
    07:00 +8°C° 0 mm 1 mps 769 mmHg 91%
    08:00 +9°C° 0 mm 2 mps 769 mmHg 87%
    09:00 +10°C° 0 mm 2 mps 769 mmHg 84%
    10:00 +12°C° 0 mm 2 mps 769 mmHg 80%
    11:00 +12°C° 0 mm 2 mps 769 mmHg 77%
    12:00 +12°C° 0 mm 3 mps 769 mmHg 74%
    13:00 +12°C° 0 mm 3 mps 769 mmHg 73%
    14:00 +12°C° 0 mm 3 mps 769 mmHg 72%
    15:00 +13°C° 0 mm 3 mps 769 mmHg 71%
    16:00 +12°C° 0 mm 3 mps 769 mmHg 75%
    17:00 +11°C° 0 mm 4 mps 769 mmHg 78%
    18:00 +8°C° 0 mm 5 mps 770 mmHg 81%
    19:00 +7°C° 0 mm 5 mps 770 mmHg 80%
    20:00 +6°C° 0 mm 5 mps 771 mmHg 78%
    21:00 +5°C° 0 mm 5 mps 772 mmHg 77%
    22:00 +5°C° 0 mm 5 mps 772 mmHg 78%
    23:00 +5°C° 0 mm 4 mps 772 mmHg 80%
    Show more